User: anonymous
Location: Fort Wayne
(41.1310°N, 85.1290°W)
Time: 05:26:43
(UTC-04:00)
Language:

COSMOS 2428 - Orbit

View from above orbital plane
View from above orbital plane
View from above satellite
View from above satellite

Ground track
Ground track

The orbit data is extracted from the following two-line orbital elements,

1 31792U 07029A   14109.18545262  .00000269  00000-0  17171-3 0  5407
2 31792 070.9475 313.2025 0011861 223.9749 244.6827 14.12305564350984
Epoch (UTC): 19 April 2014 04:27:03
Eccentricity: 0.0011861
inclination: 70.9475°
perigee height: 843 km
apogee height: 860 km
right ascension of ascending node: 313.2025°
argument of perigee: 223.9749°
revolutions per day: 14.12305564
mean anomaly at epoch: 244.6827°
orbit number at epoch: 35098

The dashed part of the orbit path shows where the satellite is in the earth's shadow,  

DLR